Location: Newark
(25.4800°N, 85.7200°E)
Time: 17:41:28
(UTC+00:00)

Transit 4A - Pass Details

Date: 28 August 2019
Orbit: 866 x 978 km, 66.8° (Epoch: 13 October)

Event Time Altitude Azimuth Distance (km) Brightness Sun altitude
Rises 20:56:37 0° 332° (NNW) 3,573 11.1 -37.9°
Enters shadow 20:56:53 - 331° (NNW) 3,473 11.0 -37.9°
Reaches altitude 10° 20:59:12 10° 329° (NNW) 2,611 - -37.5°
Maximum altitude 21:05:09 61° 250° (WSW) 1,011 - -36.4°
Drops below altitude 10° 21:10:55 10° 171° (S) 2,531 - -35.3°
Sets 21:13:23 0° 167° (SSE) 3,455 - -34.8°
